Wind_Speed
38 40 42 44 45 45 44 44 46 46 48 48 47 49 50 50 51 53 53 53 53 51 51 50 49 47 45 43 41 40 38 36 35 35 35 35 34 34 34 34 35 35 35
35 38 40 42 42 42 42 41 42 44 47 47 46 47 49 49 49 51 53 53 51 50 50 50 49 48 46 44 42 41 39 37 37 36 36 35 34 34 34 35 36 36 35
29 33 37 39 40 41 40 39 41 43 43 42 42 45 47 48 49 49 51 52 52 52 51 50 50 49 48 46 44 43 42 40 39 38 36 35 36 35 35 35 36 36 36
24 28 33 34 35 35 35 36 37 38 38 39 40 42 44 47 48 49 50 51 51 52 50 49 48 47 47 46 46 44 42 40 39 38 37 37 36 37 36 35 35 35 36
21 23 27 29 30 31 32 33 35 35 35 35 36 38 42 43 46 48 48 48 47 48 48 48 45 45 45 44 44 42 40 39 39 38 38 38 38 38 37 37 37 37 37
16 17 23 26 24 26 28 29 30 33 33 33 31 33 36 39 42 43 43 45 45 45 45 46 45 44 43 42 40 40 39 40 40 39 38 38 39 40 40 39 38 38 38
12 14 18 21 21 22 23 23 26 28 28 27 28 29 30 32 36 39 40 41 42 43 43 44 44 43 42 41 40 40 42 43 43 43 42 41 41 41 40 40 39 39 38
9 11 13 17 19 20 21 21 23 25 26 26 28 29 29 31 34 37 39 40 41 42 43 44 45 45 45 45 45 44 44 45 45 45 45 45 43 42 41 41 40 38 37
7 8 9 12 16 18 18 18 19 22 23 25 27 29 29 30 33 36 38 38 38 39 41 44 46 46 46 47 47 48 48 48 47 46 46 46 44 42 40 39 38 37 36
5 6 8 11 13 15 16 17 19 21 21 22 23 26 27 29 31 34 38 39 40 40 39 41 44 46 47 48 48 49 49 48 47 46 46 44 42 40 38 37 37 37 37
5 5 6 10 12 15 17 19 20 21 22 23 23 24 25 27 29 32 34 37 38 39 40 40 41 43 44 44 45 47 46 45 45 45 43 41 39 39 39 38 38 38 38
5 6 7 10 12 14 17 20 21 23 24 24 25 26 26 26 29 31 33 34 35 36 37 38 40 40 41 41 42 43 43 43 42 42 41 41 41 41 40 39 39 40 40
6 7 9 11 13 14 17 20 22 24 25 26 27 28 29 30 31 33 35 35 36 37 38 38 40 41 41 41 41 42 43 43 43 42 42 41 41 40 40 40 40 41 41
8 10 11 13 15 16 18 21 24 26 28 29 30 32 33 34 35 36 37 38 39 40 40 40 40 42 41 40 41 42 42 42 42 42 41 41 41 41 41 41 42 42 41
9 11 13 14 16 18 20 23 26 28 30 31 33 35 36 37 38 39 40 40 41 42 43 43 42 42 42 43 43 43 43 43 43 43 43 43 43 43 43 43 43 43 43
11 13 15 17 19 21 23 25 28 31 33 35 36 38 39 40 41 41 42 43 44 44 45 45 44 44 44 45 45 46 46 46 45 46 45 45 45 45 44 44 44 44 44
14 16 18 20 23 25 27 30 33 35 37 39 40 42 44 45 46 46 46 46 47 47 47 46 47 47 47 47 47 47 48 47 47 48 47 47 46 46 46 46 46 46 46
18 20 23 25 27 30 32 34 36 38 40 43 44 46 47 48 49 49 50 50 51 50 50 50 50 50 50 50 50 50 49 49 49 48 48 48 48 47 47 47 47 47 47
23 25 27 29 32 34 36 38 40 42 44 46 47 49 50 51 52 52 53 53 53 54 54 53 53 53 52 52 52 52 52 51 51 50 50 50 49 48 48 47 47 47 46
27 29 31 34 36 38 40 42 44 46 47 49 50 51 53 53 54 55 56 56 56 56 56 55 55 55 54 54 53 52 52 51 51 51 50 50 49 48 47 47 46 45 44
31 34 36 38 40 42 44 46 48 49 51 53 54 55 55 56 57 58 58 58 58 58 57 56 56 56 55 54 54 52 51 51 50 50 49 48 48 47 46 46 45 44 44
35 37 40 42 44 46 47 49 51 53 55 56 57 58 58 59 59 59 59 59 59 59 58 57 56 55 54 54 53 52 52 51 50 49 49 48 47 47 46 46 45 44 43
38 41 43 45 47 50 52 53 55 56 57 58 59 59 59 59 59 59 59 58 58 57 57 57 56 55 54 53 53 52 52 51 50 50 49 48 47 46 46 45 44 43 42
41 43 45 48 50 52 54 55 56 58 59 59 59 60 60 59 59 58 57 56 55 55 54 54 54 54 53 52 52 51 51 51 51 50 49 49 47 46 45 44 43 42 42
43 46 48 50 51 53 54 56 58 59 60 60 60 60 60 59 58 57 56 55 54 53 52 51 50 51 51 51 51 51 51 51 51 50 50 48 47 46 45 44 43 42 41
46 48 50 51 52 54 55 57 58 58 58 58 58 58 58 58 57 56 55 54 53 52 52 50 50 50 50 50 50 50 50 50 50 50 48 47 46 45 44 42 42 41 41
Wind_Direction
220 219 219 219 218 219 219 218 221 223 223 223 223 223 222 222 225 226 227 229 231 234 236 236 238 240 242 244 245 246 248 250 253 256 258 261 264 267 270 273 275 276 278
219 218 220 220 219 218 218 218 220 220 220 222 223 223 222 223 224 226 227 228 231 234 235 237 238 240 242 244 246 248 249 250 253 256 259 262 265 268 271 273 274 276 277
220 218 219 220 220 219 219 220 222 222 221 222 220 221 221 223 223 225 228 230 231 234 237 238 240 241 244 245 247 250 251 252 254 256 259 262 265 267 270 273 274 276 277
214 215 217 217 216 217 217 218 223 222 222 223 222 224 225 225 225 227 230 232 233 236 238 240 241 243 246 247 248 250 251 254 254 256 259 263 266 268 270 272 275 277 278
211 217 219 217 218 218 218 221 223 221 221 223 224 226 226 227 228 228 230 232 233 234 236 239 241 242 245 248 250 251 252 255 256 258 260 263 266 268 270 271 273 275 277
210 215 217 217 220 220 220 223 226 226 225 224 224 226 228 229 230 230 231 232 234 235 237 238 240 242 245 249 251 251 252 255 258 260 262 264 267 269 270 271 272 274 276
202 209 214 218 221 221 223 227 225 227 230 230 227 228 231 233 233 233 235 237 238 240 241 242 244 244 247 249 251 252 254 257 259 261 261 263 266 267 269 270 272 273 274
194 202 213 220 222 226 231 235 234 234 235 235 234 236 237 238 236 236 237 238 239 240 241 243 244 246 248 250 251 253 256 257 260 262 263 263 265 267 268 269 271 273 276
194 208 215 221 225 232 233 237 240 240 240 238 238 240 242 241 242 241 241 239 240 243 244 245 247 247 250 251 253 254 256 257 259 261 262 262 263 266 267 268 271 273 276
182 210 221 223 229 230 230 240 248 246 243 242 242 242 241 243 244 245 245 245 245 246 248 247 249 251 251 252 253 254 255 257 258 260 262 262 263 264 266 268 271 274 276
178 196 216 228 239 238 241 243 249 251 250 249 249 250 249 248 247 248 249 249 249 250 249 248 250 252 253 254 254 253 256 258 259 260 260 260 262 264 267 271 272 274 276
209 223 238 238 246 248 251 249 253 255 253 253 254 256 257 255 254 254 255 256 255 254 254 253 253 254 254 253 255 255 257 258 259 259 260 262 264 266 268 269 270 273 275
241 246 253 253 255 256 257 258 257 257 255 255 256 257 258 259 259 258 258 258 259 259 259 258 257 256 256 256 256 256 257 257 259 260 262 263 264 265 266 268 270 274 276
259 259 261 264 264 264 262 262 263 261 258 259 261 261 261 261 261 261 261 260 261 260 259 258 258 258 258 259 259 258 258 258 259 261 262 263 263 264 266 269 272 274 276
273 272 273 273 272 272 270 270 270 269 267 266 265 263 263 262 262 263 263 262 261 260 259 259 259 259 259 258 258 258 258 259 259 259 261 262 264 266 269 270 271 273 275
283 280 280 279 276 274 273 272 273 273 272 271 269 266 265 265 265 265 264 263 263 262 261 261 261 261 259 258 258 258 258 258 260 261 262 263 264 266 267 269 271 273 274
286 283 281 281 280 280 279 276 275 274 273 273 271 269 268 267 267 266 266 265 264 263 263 262 261 260 260 259 258 258 259 260 260 261 262 262 263 264 266 268 270 272 274
290 289 287 285 284 283 281 279 277 276 275 274 272 271 270 270 269 268 267 266 265 264 263 262 261 261 260 259 258 258 258 259 259 260 261 262 263 264 266 268 269 271 272
294 293 292 290 288 286 284 282 280 278 276 275 273 272 272 271 270 268 267 266 265 265 264 262 261 261 260 259 258 258 258 258 258 259 260 261 261 263 264 266 268 269 270
297 295 294 292 291 288 286 284 283 281 279 278 276 275 273 272 272 271 270 268 267 266 265 263 262 261 259 258 258 258 257 257 257 258 258 259 259 261 263 264 265 266 267
301 299 298 296 294 292 289 286 285 284 282 280 279 277 276 274 273 273 272 270 269 267 265 263 261 260 258 257 256 256 255 255 255 255 256 257 258 259 260 262 263 263 265
304 302 301 299 297 295 292 289 287 286 284 282 280 279 277 276 275 273 271 270 269 266 264 262 261 259 258 256 255 254 253 252 252 253 253 254 255 256 257 259 260 261 262
304 303 301 299 297 294 292 291 289 287 286 285 283 281 279 277 276 274 273 271 269 266 264 262 260 258 257 256 254 253 252 251 250 250 251 252 253 253 254 256 258 259 260
305 304 302 300 298 296 293 291 290 288 287 285 284 282 281 279 278 276 273 271 268 266 264 262 259 257 254 253 251 250 249 249 248 248 249 249 250 251 253 255 257 258 258
307 305 303 302 299 297 296 294 292 290 288 287 285 283 281 280 278 276 273 270 268 265 263 260 257 254 251 250 248 247 246 246 246 247 247 249 250 250 252 253 254 255 257
309 308 306 304 302 300 298 296 294 293 291 289 287 285 283 281 279 276 272 270 266 263 261 258 255 251 249 246 245 244 244 244 244 245 246 247 248 249 250 251 253 254 256
Height
5644 5650 5657 5664 5671 5679 5687 5694 5701 5707 5713 5719 5725 5731 5736 5741 5747 5752 5757 5762 5766 5771 5775 5779 5783 5787 5790 5793 5795 5798 5801 5803 5805 5807 5808 5809 5810 5811 5812 5812 5812 5812 5811
5638 5645 5652 5659 5666 5673 5681 5687 5693 5699 5706 5713 5718 5724 5729 5734 5740 5745 5749 5754 5758 5763 5767 5771 5775 5779 5782 5785 5788 5791 5793 5795 5797 5799 5800 5802 5803 5804 5804 5804 5804 5804 5804
5634 5641 5648 5655 5661 5668 5674 5681 5687 5693 5700 5707 5712 5717 5722 5727 5732 5737 5741 5746 5751 5755 5759 5763 5767 5770 5774 5777 5780 5782 5785 5787 5789 5791 5793 5794 5795 5796 5797 5796 5796 5796 5796
5630 5637 5643 5650 5657 5663 5669 5676 5682 5688 5695 5700 5706 5711 5716 5721 5726 5731 5735 5739 5743 5748 5752 5755 5759 5762 5766 5769 5771 5774 5777 5779 5780 5782 5784 5785 5786 5788 5789 5789 5788 5788 5788
5629 5634 5640 5646 5653 5659 5666 5672 5678 5683 5689 5694 5701 5706 5711 5715 5720 5724 5728 5732 5736 5740 5744 5748 5751 5754 5757 5760 5763 5766 5768 5770 5772 5774 5775 5776 5777 5778 5780 5780 5781 5780 5780
5629 5634 5640 5645 5651 5656 5662 5668 5673 5679 5684 5690 5695 5700 5705 5709 5713 5717 5720 5725 5729 5732 5736 5740 5743 5746 5749 5752 5755 5757 5760 5761 5763 5765 5766 5768 5769 5769 5770 5771 5771 5772 5772
5630 5634 5639 5644 5649 5654 5660 5665 5670 5675 5680 5685 5690 5694 5699 5702 5706 5710 5714 5717 5721 5725 5728 5732 5735 5738 5741 5744 5746 5749 5751 5753 5754 5756 5757 5759 5759 5760 5761 5761 5761 5762 5762
5630 5634 5639 5643 5648 5653 5658 5663 5667 5672 5676 5680 5684 5689 5693 5697 5700 5704 5707 5710 5714 5717 5720 5723 5726 5729 5732 5734 5737 5739 5741 5743 5744 5746 5747 5748 5749 5750 5751 5751 5752 5752 5753
5631 5635 5639 5643 5647 5652 5656 5660 5664 5668 5672 5676 5680 5683 5687 5690 5694 5697 5700 5703 5706 5709 5712 5714 5717 5720 5722 5724 5727 5729 5731 5733 5734 5735 5737 5738 5739 5740 5740 5741 5742 5743 5743
5632 5635 5639 5643 5646 5650 5654 5657 5661 5665 5668 5672 5674 5677 5680 5683 5686 5688 5691 5694 5697 5700 5702 5705 5707 5710 5712 5714 5716 5718 5720 5722 5723 5724 5726 5727 5728 5729 5730 5731 5731 5731 5732
5633 5636 5639 5642 5645 5648 5651 5654 5657 5660 5664 5666 5669 5671 5673 5676 5678 5681 5683 5686 5688 5691 5693 5695 5697 5699 5701 5703 5705 5707 5708 5710 5712 5713 5715 5716 5717 5719 5719 5720 5720 5721 5721
5633 5636 5638 5641 5643 5645 5648 5651 5653 5655 5658 5660 5662 5664 5666 5668 5670 5672 5674 5676 5678 5681 5682 5684 5686 5688 5690 5691 5693 5695 5697 5699 5701 5702 5703 5705 5706 5707 5708 5709 5709 5710 5709
5633 5635 5637 5639 5641 5642 5644 5646 5648 5650 5652 5653 5655 5656 5658 5660 5661 5663 5665 5667 5668 5670 5672 5673 5675 5677 5679 5680 5682 5684 5686 5688 5689 5691 5692 5693 5695 5696 5697 5697 5698 5698 5698
5632 5633 5634 5636 5637 5639 5640 5641 5642 5643 5644 5646 5647 5648 5650 5651 5652 5653 5654 5656 5657 5659 5660 5662 5664 5665 5667 5669 5670 5672 5674 5676 5677 5679 5680 5681 5683 5684 5685 5686 5686 5686 5686
5630 5631 5631 5632 5633 5634 5634 5635 5635 5635 5636 5637 5637 5638 5639 5640 5640 5641 5642 5644 5645 5646 5648 5649 5651 5653 5654 5656 5658 5660 5661 5663 5664 5666 5668 5669 5670 5672 5673 5673 5674 5674 5674
5627 5627 5627 5627 5628 5628 5627 5627 5627 5626 5626 5626 5627 5627 5627 5628 5628 5629 5630 5630 5632 5633 5634 5636 5638 5639 5641 5642 5644 5646 5648 5649 5651 5653 5655 5656 5657 5659 5660 5661 5661 5662 5662
5625 5624 5623 5623 5622 5621 5620 5619 5618 5617 5616 5615 5615 5615 5615 5615 5615 5615 5616 5616 5617 5618 5620 5621 5623 5625 5626 5628 5629 5631 5633 5635 5637 5639 5641 5642 5644 5645 5647 5647 5648 5649 5649
5621 5619 5618 5616 5615 5613 5611 5609 5608 5606 5604 5603 5602 5601 5601 5601 5600 5600 5600 5601 5601 5603 5604 5605 5607 5609 5611 5612 5614 5616 5618 5621 5623 5625 5627 5628 5630 5632 5633 5634 5635 5636 5637
5615 5613 5611 5608 5606 5603 5601 5598 5596 5593 5591 5589 5588 5586 5585 5584 5584 5584 5583 5584 5584 5585 5587 5588 5590 5592 5594 5596 5598 5600 5602 5605 5607 5610 5612 5614 5616 5617 5619 5621 5622 5623 5624
5608 5606 5603 5599 5596 5593 5589 5586 5583 5580 5577 5574 5572 5570 5568 5567 5566 5566 5565 5565 5566 5567 5568 5570 5572 5575 5577 5579 5581 5583 5586 5589 5592 5594 5596 5598 5601 5603 5605 5607 5609 5610 5611
5601 5597 5593 5589 5585 5581 5576 5573 5569 5565 5561 5558 5555 5552 5550 5548 5547 5546 5546 5546 5546 5547 5549 5551 5553 5556 5558 5561 5563 5566 5569 5573 5575 5578 5581 5583 5586 5588 5591 5593 5595 5597 5598
5592 5587 5583 5578 5573 5568 5563 5558 5553 5549 5545 5541 5537 5534 5531 5529 5527 5526 5526 5525 5526 5527 5529 5531 5534 5537 5540 5543 5545 5548 5552 5556 5559 5563 5566 5569 5571 5574 5577 5579 5581 5583 5585
5582 5577 5571 5566 5560 5554 5548 5542 5537 5531 5526 5522 5518 5514 5511 5509 5507 5505 5505 5505 5505 5506 5508 5511 5514 5517 5520 5524 5527 5531 5535 5539 5543 5547 5550 5553 5556 5559 5562 5565 5568 5570 5572
5571 5565 5559 5552 5546 5538 5531 5525 5519 5513 5507 5502 5498 5494 5491 5488 5486 5484 5484 5484 5484 5485 5487 5490 5493 5497 5501 5505 5509 5513 5517 5522 5526 5530 5534 5538 5541 5545 5548 5552 5554 5557 5559
5559 5552 5545 5538 5530 5522 5515 5507 5500 5493 5488 5482 5477 5473 5470 5467 5465 5464 5463 5463 5464 5465 5467 5470 5473 5478 5483 5487 5491 5495 5500 5505 5510 5514 5518 5523 5527 5531 5535 5538 5541 5544 5546
5546 5539 5530 5522 5514 5506 5498 5489 5481 5474 5468 5462 5457 5453 5449 5446 5444 5443 5443 5442 5444 5445 5447 5450 5454 5458 5464 5468 5473 5478 5483 5488 5493 5498 5503 5508 5513 5517 5521 5525 5528 5531 5533